Zurück zum Katalog

NIGERIASAT X

AktivWissenschaftSSO
NORAD 37790·PAYLOAD·🇳🇬 Nigeria

Gestartet Aug 17, 2011 von Dombarovsky

Loading…

Nächste Überflüge (nächste 24 Stunden)

TLE

AktuellSource: Space-Track

Epoche: Sep 14, 2026, 09:08 UTC

1 37790U 11044C   26257.38061595  .00000247  00000-0  59358-4 0  9992
2 37790  97.8654 237.0586 0013496  57.2745 302.9755 14.60918343803192

Verfolge NIGERIASAT X in Echtzeit mit AllMySat

Download on the App Store